OpenBCM V2.0.3 (Linux)

Packet Radio Mailbox

IZ3LSV

[San Dona' di P. JN]

 Login: GUEST





  
I0OJJ  > KEPS     28.04.26 02:27l 307 Lines 14616 Bytes #33 (0) @ AMSAT
BID : ORB26118.1
Read: GUEST
Subj: 2Line Orbital Elements 26118.AMSAT
Path: IZ3LSV<IR1UAW<IR1UAW<IR0AAB<I0OJJ
Sent: 260428/0021z @:I0OJJ.ITA.EU [Rome] obcm1.13-38-g65b7
From: I0OJJ @ I0OJJ.ITA.EU (Gustavo)
To:   KEPS @ AMSAT
X-Info: This message was generated automatically


QST de W1STR

AMSAT Orbital Elements for Amateur Satellites in TLE Format
From Orbital Analysis Office
New England Sci-Tech STEM Education Center
Natick MA April 28, 2026
To all radio amateurs


These element sets describe the orbits of various satellites 
in use by the amateur radio community. For details see:
www.amsat.org/keplerian-elements-formats/

A daily update of element sets is available at:
www.amsat.org/tle/daily-bulletin.txt
or without bulletin text:
www.amsat.org/tle/dailytle.txt


AO-07
1 07530U 74089B   26117.87320410 -.00000024  00000-0  13816-3 0  9994
2 07530 101.9929 130.5912 0011973 225.8988 208.3139 12.53697253354216
UO-11
1 14781U 84021B   26117.87910399  .00001409  00000-0  14934-3 0  9997
2 14781  97.8021  84.0325 0007591   2.7260 357.3998 14.90660717249630
AO-27
1 22825U 93061C   26117.72433833  .00000101  00000-0  55487-4 0  9993
2 22825  98.6904 185.1496 0007350 244.8567 115.1854 14.30928156699785
FO-29
1 24278U 96046B   26117.59075221  .00000016  00000-0  54178-4 0  9992
2 24278  98.5300 333.3761 0349083 227.6288 129.4811 13.53271757466326
GO-32
1 25397U 98043D   26117.84047198  .00000079  00000-0  54414-4 0  9996
2 25397  99.0062 109.3334 0001723  40.7525 319.3782 14.24418162444168
ISS
1 25544U 98067A   26117.49031139  .00009210  00000-0  17512-3 0  9998
2 25544  51.6320 191.0311 0007041 356.8192   3.2750 15.48989086563897
NO-44
1 26931U 01043C   26117.80043490  .00000140  00000-0  83156-4 0  9996
2 26931  67.0527  14.5939 0006492 263.9591  96.0771 14.31935980283238
SO-50
1 27607U 02058C   26117.84887711  .00001276  00000-0  16769-3 0  9996
2 27607  64.5515 284.7164 0075595 271.6265  87.6183 14.82933333256995
CO-55
1 27844U 03031E   26117.59855981  .00000317  00000-0  15631-3 0  9999
2 27844  98.6756 126.7916 0009029 339.7387  20.3432 14.24303230184470
RS-22
1 27939U 03042A   26117.89977189  .00001739  00000-0  27642-3 0  9998
2 27939  98.3471 300.8416 0012537  70.2499  38.0224 14.73377115208148
CO-65
1 32785U 08021C   26117.85945397  .00005679  00000-0  36344-3 0  9993
2 32785  97.8252  98.2596 0008520 187.6080 172.5020 15.08966982977604
CO-66
1 32791U 08021J   26117.44535014  .00019771  00000-0  66184-3 0  9999
2 32791  97.7526 112.9935 0005009 112.9196 247.2573 15.30988919979528
RS-30
1 32953U 08025A   26117.79965744  .00000031  00000-0  14748-3 0  9996
2 32953  82.5074  26.7786 0020630  61.9104 298.4059 12.43177772813435
SRMSAT
1 37841U 11058D   26117.81910507  .00000419  00000-0  83598-4 0  9997
2 37841  19.9735   4.3367 0011697  10.2546  53.7241 14.11563494750691
ZACUBE-1
1 39417U 13066B   26117.80930072  .00005597  00000-0  43699-3 0  9996
2 39417  97.8119  79.8755 0044024  61.7289 298.8367 15.00765289673179
Delfi-N3xt
1 39428U 13066N   26117.77175788  .00009874  00000-0  86983-3 0  9994
2 39428  97.8345  38.1514 0075961  15.7640 344.5919 14.94436956667091
GOMX-1
1 39430U 13066Q   26117.79270987  .00001507  00000-0  23352-3 0  9992
2 39430  97.6530 321.4295 0127630 239.0953 119.7655 14.69264944662510
LO-74
1 39440U 13066AA  26117.81660558  .00003831  00000-0  35896-3 0  9991
2 39440  97.8875  66.6086 0057463 192.7393 167.2378 14.93403885669478
AO-73
1 39444U 13066AE  26117.86439994  .00011447  00000-0  72043-3 0  9995
2 39444  97.8243  88.2956 0037289  17.8851 342.3679 15.08779240672075
DTUSAT-2
1 40030U 14033W   26117.70040628  .00007924  00000-0  43587-3 0  9994
2 40030  98.0864 112.2521 0009445  56.1175 304.0952 15.14333938645047
LILACSAT-2
1 40908U 15049K   26117.80666240  .00018918  00000-0  34121-3 0  9990
2 40908  97.4729 152.7791 0008778  81.8349 278.3897 15.49770726587941
Horyu-4
1 41340U 16012D   26117.60418631  .00144806  00000-0  97469-3 0  9999
2 41340  30.9889  83.2361 0006255 255.5191 104.4771 15.73582005562799
Lapan A3
1 41603U 16040E   26117.86285722  .00003765  00000-0  12120-3 0  9992
2 41603  97.1487 115.6771 0010008 185.0492 175.0652 15.32770941547100
CAS-2T
1 41847U 16066G   26117.81597676  .00000672  00000-0  10476-3 0  9995
2 41847  98.3830 194.1202 0340937 282.4501  73.8745 14.44569548497525
TechnoSat
1 42829U 17042E   26117.71218139  .00003897  00000-0  28066-3 0  9990
2 42829  97.4233 277.3187 0016258 265.5592  94.3777 15.04645478479119
AO-91
1 43017U 17073E   26117.58912191  .00010746  00000-0  47442-3 0  9998
2 43017  97.4780 345.8599 0154061 142.8148 218.3873 15.11782348457749
S-Net D
1 43186U 18014G   26117.78425000  .00005190  00000-0  27204-3 0  9992
2 43186  97.5403  22.8987 0008057 180.3732 179.7496 15.16190259451127
S-Net B
1 43187U 18014H   26117.66272536  .00005495  00000-0  28805-3 0  9990
2 43187  97.5408  22.7632 0008827 177.0827 183.0459 15.16159976451108
S-Net A
1 43188U 18014J   26117.65137845  .00005189  00000-0  27192-3 0  9991
2 43188  97.5418  22.9513 0008677 177.7738 182.3535 15.16195426451108
S-Net C
1 43189U 18014K   26117.73232025  .00005559  00000-0  29133-3 0  9995
2 43189  97.5436  23.0984 0010303 172.0386 188.1012 15.16152264449664
Ten-Koh
1 43677U 18084G   26117.78721515  .00002507  00000-0  19262-3 0  9998
2 43677  98.0798 308.0332 0007575 290.5069  69.5341 15.02724465408594
PO-101
1 43678U 18084H   26117.81634233  .00003671  00000-0  29834-3 0  9992
2 43678  98.1070 311.8805 0013183 343.2784  16.8002 15.00201521408666
QO-100
1 43700U 18090A   26116.57043110  .00000132  00000-0  00000+0 0  9994
2 43700   0.0402  76.1329 0001354 345.0735  24.5116  1.00274610 27155
MinXSS-2
1 43758U 18099A   26117.77411800  .00033251  00000-0  73785-3 0  9996
2 43758  97.4562 192.7090 0008937  94.3868 265.8401 15.43614800406340
AO-95
1 43770U 18099N   26117.72233639  .00012548  00000-0  49579-3 0  9997
2 43770  97.4424 178.1885 0009771 157.4877 202.6791 15.25598381405524
SNUSat 2
1 43782U 18099AA  26117.75662411  .00009701  00000-0  43897-3 0  9991
2 43782  97.4108 171.9343 0012129 111.3687 248.8844 15.21044060405364
SnugLite
1 43784U 18099AC  26117.67240344  .00012401  00000-0  48381-3 0  9995
2 43784  97.3915 172.4814 0004636 106.6042 253.5705 15.26055403405611
ITASat 1
1 43786U 18099AE  26117.74975889  .00007924  00000-0  38764-3 0  9992
2 43786  97.4079 170.2818 0013426 162.0865 198.0845 15.18392505405257
EAGLET 1
1 43790U 18099AJ  26117.78084142  .00004100  00000-0  23850-3 0  9997
2 43790  97.4280 168.7879 0012072 152.9544 207.2318 15.12543356404717
ESEO
1 43792U 18099AL  26117.82165066  .00001237  00000-0  93366-4 0  9997
2 43792  97.4021 157.3610 0013323 138.3399 221.8845 15.04089137404232
JO-97
1 43803U 18099AX  26117.69849536  .00017999  00000-0  58334-3 0  9993
2 43803  97.4171 180.4119 0007413  95.0132 265.1956 15.32031764405890
Suomi 100
1 43804U 18099AY  26117.64404852  .00013032  00000-0  48951-3 0  9995
2 43804  97.4232 178.2610 0011830 100.3628 259.8945 15.27249530405702
ISAT
1 43879U 18111D   26117.77929166  .00072504  00000-0  97968-3 0  9997
2 43879  97.5902  49.4540 0008742 111.8468 248.3717 15.57475900403306
UWE-4
1 43880U 18111E   26117.74624669  .00031730  00000-0  71728-3 0  9998
2 43880  97.5856  43.9389 0009998 133.6378 226.5700 15.43062812402995
Sparrow
1 43881U 18111F   26117.78100080  .00095849  00000-0  10483-2 0  9990
2 43881  97.6121  54.3442 0006878 127.3343 232.8542 15.62969620403476
Prox-1
1 44339U 19036A   26117.62887250  .00015402  00000-0  15522-2 0  9996
2 44339  23.9948  91.6466 0006737 166.6040 193.4638 14.89381397365920
Taurus 1
1 44530U 19059C   26117.86684475  .00010455  00000-0  16889-2 0  9994
2 44530  98.6372 279.6071 0009878 110.7502 249.4763 14.71535161351247
TO-108
1 44881U 19093C   26117.82801407  .00001400  00000-0  16434-3 0  9990
2 44881  97.7545 191.2861 0012082 251.2989 108.6916 14.86436663343931
RS-44
1 44909U 19096E   26117.81275238 -.00000003  00000-0 -50421-4 0  9995
2 44909  82.5261  13.1803 0216364 262.1572  95.4920 12.79747946295905
SALSAT
1 46495U 20068K   26117.57100510  .00008583  00000-0  30677-3 0  9990
2 46495  97.8861 117.5852 0011589 116.3186 243.9244 15.29034557307625
CSS (TIANHE-1)
1 48274U 21035A   26117.82326002  .00029167  00000-0  31352-3 0  9998
2 48274  41.4671 268.6646 0006797 286.5652  73.4441 15.63075705285299
CUTE
1 49263U 21088D   26117.79884336  .00095463  00000-0  64530-3 0  9996
2 49263  97.4191 213.0336 0001327 158.2740 201.8581 15.74771477254584
TeikyoSat 4
1 49396U 21102B   26117.60552377  .00001795  00000-0  11614-3 0  9997
2 49396  97.3718 149.0510 0013736 105.5495 254.7252 15.09323093245099
Z-Sat
1 49399U 21102E   26117.83866058  .00005702  00000-0  28350-3 0  9996
2 49399  97.3377 154.6924 0018262  66.0101 294.3043 15.17872141245807
KOSEN 1
1 49402U 21102H   26117.60047579  .00008587  00000-0  33446-3 0  9991
2 49402  97.3240 160.7546 0014527  33.7420 326.4741 15.26124010246307
HO-113
1 50466U 21131B   26117.86364615  .00000558  00000-0  18623-3 0  9996
2 50466  98.4948 210.5337 0002998 240.5051 119.5839 14.41307486227860
SNUGLITE 2
1 52899U 22065F   26117.66975300  .00001122  00000-0  22202-3 0  9998
2 52899  98.2130 262.6124 0007669 172.9633 187.1678 14.64248552203600
UmKA 1 (RS40S)
1 57172U 23091G   26117.81571617  .00006667  00000-0  31005-3 0  9997
2 57172  97.5093 176.7186 0011258 298.1556  61.8541 15.20243026156356
CubeBel-2 (EU11S)
1 57175U 23091K   26117.84196475  .00014567  00000-0  53544-3 0  9998
2 57175  97.5092 180.6475 0008406 294.9017  65.1348 15.27976509156617
RS-38S
1 57189U 23091Z   26117.82828759  .00018054  00000-0  54294-3 0  9996
2 57189  97.5123 186.3615 0006286 240.9847 119.0766 15.34428391156962
SONATE-2
1 59112U 24043Q   26117.36129743  .00044727  00000-0  66289-3 0  9991
2 59112  97.5474 264.8056 0006683  35.3575 324.8121 15.55103304119984
